Location: Hawaiian Village Mobile Home Park
(32.8359°N, 116.9792°W)
Time: 11:05:51
(UTC+00:00)

Cosmos 44 Rocket - Pass Details

Date: 01 August 2021
Orbit: 639 x 750 km, 65.1° (Epoch: 15 September)

Event Time Altitude Azimuth Distance (km) Brightness Sun altitude
Rises 12:33:32 0° 321° (NW) 3,149 6.5 -6.3°
Reaches altitude 10° 12:36:06 10° 313° (NW) 2,208 5.7 -5.8°
Maximum altitude 12:40:37 34° 249° (WSW) 1,154 4.0 -4.9°
Drops below altitude 10° 12:44:59 10° 185° (S) 2,130 5.5 -4.1°
Sets 12:47:26 0° 176° (S) 3,023 6.4 -3.6°
